This is the latest recevied weather packets stored in our database for station/object W5DRO-13. If no packets are shown the sender has not sent any weather packets the latest 10 day(s).
| Time | Temp. | Humidity | Pressure | Rain* | Wind** | Luminosity | Snow |
|---|---|---|---|---|---|---|---|
| 1777648190 | 17.22° C | 61% | 1020.5 hPa | 0 mm | - | - | - |
| 1777647886 | 17.78° C | 63% | 1020.5 hPa | 0 mm | - | - | - |
| 1777647279 | 17.22° C | 63% | 1020.4 hPa | 0 mm | - | - | - |
| 1777646368 | 16.11° C | 68% | 1020.5 hPa | 0 mm | - | - | - |
| 1777646065 | 15° C | 71% | 1020.4 hPa | 0 mm | - | - | - |
| 1777645761 | 14.44° C | 73% | 1020.4 hPa | 0 mm | - | - | - |
| 1777645459 | 13.89° C | 75% | 1020.4 hPa | 0 mm | - | - | - |
| 1777645154 | 13.89° C | 75% | 1020.2 hPa | 0 mm | - | - | - |
| 1777644851 | 13.89° C | 74% | 1020.1 hPa | 0 mm | - | - | - |
| 1777644549 | 13.89° C | 74% | 1020.1 hPa | 0 mm | - | - | - |
| 1777644244 | 13.89° C | 76% | 1020.1 hPa | 0 mm | - | - | - |
| 1777643941 | 13.33° C | 77% | 1020.1 hPa | 0 mm | - | - | - |
| 1777643639 | 13.33° C | 77% | 1020.1 hPa | 0 mm | - | - | - |
| 1777643335 | 13.33° C | 77% | 1020.1 hPa | 0 mm | - | - | - |
| 1777642728 | 12.78° C | 79% | 1020.1 hPa | 0 mm | - | - | - |
| 1777642426 | 12.22° C | 81% | 1020.2 hPa | 0 mm | - | - | - |
| 1777642122 | 11.67° C | 81% | 1019.9 hPa | 0 mm | - | - | - |
| 1777641818 | 11.67° C | 82% | 1019.8 hPa | 0 mm | - | - | - |
| 1777641514 | 11.11° C | 84% | 1019.7 hPa | 0 mm | - | - | - |
| 1777641209 | 10.56° C | 86% | 1019.7 hPa | 0 mm | - | - | - |
| 1777640906 | 10.56° C | 86% | 1019.7 hPa | 0 mm | - | - | - |
| 1777640299 | 10° C | 86% | 1019.6 hPa | 0 mm | - | - | - |
| 1777639693 | 10° C | 86% | 1019.6 hPa | 0 mm | - | - | - |
| 1777638788 | 9.44° C | 89% | 1019.7 hPa | 0 mm | - | - | - |
| 1777638181 | 8.89° C | 90% | 1019.7 hPa | 0 mm | - | - | - |
* Rain latest hour (hover to see other rain measurements)
** Current wind speed in m/s (hover to see current wind gust speed)